This is the latest recevied weather packets stored in our database for station/object HP1COO-13. If no packets are shown the sender has not sent any weather packets the latest 10 day(s).
| Time | Temp. | Humidity | Pressure | Rain* | Wind** | Luminosity | Snow |
|---|---|---|---|---|---|---|---|
| 1777467438 | 29.44° C | 78% | 1007.9 hPa | 0 mm | - | - | - |
| 1777466805 | 29.44° C | 79% | 1007.7 hPa | 0 mm | - | - | - |
| 1777466172 | 28.89° C | 81% | 1007.7 hPa | 0 mm | - | - | - |
| 1777465539 | 27.78° C | 84% | 1007.5 hPa | 0 mm | - | - | - |
| 1777464906 | 27.22° C | 86% | 1007.4 hPa | 0 mm | - | - | - |
| 1777464273 | 26.67° C | 88% | 1007.3 hPa | 0 mm | - | - | - |
| 1777464093 | 26.67° C | 89% | 1007.6 hPa | 0 mm | - | - | - |
| 1777463640 | 26.67° C | 90% | 1007.2 hPa | 0 mm | - | - | - |
| 1777463007 | 25.56° C | 92% | 1007 hPa | 0 mm | - | - | - |
| 1777462374 | 25.56° C | 93% | 1007 hPa | 0 mm | - | - | - |
| 1777461741 | 25° C | 94% | 1007.2 hPa | 0 mm | - | - | - |
| 1777460475 | 25° C | 94% | 1006.7 hPa | 0 mm | - | - | - |
| 1777459842 | 25.56° C | 94% | 1006.6 hPa | 0 mm | - | - | - |
| 1777459209 | 25.56° C | 94% | 1006.5 hPa | 0 mm | - | - | - |
| 1777458576 | 25.56° C | 94% | 1006.6 hPa | 0 mm | - | - | - |
| 1777457943 | 25° C | 94% | 1006.5 hPa | 0 mm | - | - | - |
| 1777457310 | 25° C | 94% | 1006.6 hPa | 0 mm | - | - | - |
| 1777456677 | 25.56° C | 93% | 1006.5 hPa | 0 mm | - | - | - |
| 1777456044 | 25.56° C | 93% | 1006.4 hPa | 0 mm | - | - | - |
| 1777455411 | 25.56° C | 93% | 1006.3 hPa | 0 mm | - | - | - |
| 1777454778 | 25.56° C | 93% | 1006.4 hPa | 0 mm | - | - | - |
| 1777454145 | 25.56° C | 92% | 1006.5 hPa | 0 mm | - | - | - |
| 1777453512 | 25.56° C | 91% | 1006.6 hPa | 0 mm | - | - | - |
| 1777452879 | 25.56° C | 91% | 1006.3 hPa | 0 mm | - | - | - |
| 1777452690 | 26.11° C | 90% | 1006.9 hPa | 0 mm | - | - | - |
* Rain latest hour (hover to see other rain measurements)
** Current wind speed in m/s (hover to see current wind gust speed)